Regional Weather Roundup
Issued by NWS

Home | Current Version | Previous Version | Graphics & Text | Print | Product List | Glossary On
Versions: 1 2 3 4 5 6 7 8 9 10 11 12 13 14 15 16 17 18 19 20 21 22 23 24 25 26 27 28 29 30 31 32 33 34 35 36 37 38 39 40 41 42 43 44 45 46 47 48 49 50
000
ASUS43 KMKX 301100
RWRWI

WISCONSIN REGIONAL WEATHER ROUNDUP
NATIONAL WEATHER SERVICE MILWAUKEE/SULLIVAN WI
600 AM CDT SAT JUL 30 2016

NOTE: "FAIR" INDICATES FEW OR NO CLOUDS BELOW 12,000 FEET WITH NO
SIGNIFICANT WEATHER AND/OR OBSTRUCTIONS TO VISIBILITY.

WIZ001-002-006>008-014>016-023>028-301200-
NORTHWEST WISCONSIN

CITY           SKY/WX    TMP DP  RH WIND       PRES   REMARKS
SUPERIOR ARPT  FOG       50  50 100 CALM      30.06R VSB<1/4
ASHLAND        MOCLDY    50  49  96 SW3       30.07R FOG
HAYWARD        CLOUDY    56  53  90 CALM      30.07R
SIREN          NOT AVBL
CUMBERLAND     PTCLDY    57  55  94 CALM      30.07R
RICE LAKE      PTCLDY    57  55  94 CALM      30.07S
CHETEK         PTCLDY    60  59  96 E3        30.06S
LADYSMITH      CLEAR     56  55  95 CALM      30.09S
EAU CLAIRE     PTCLDY    61  61 100 NE6       30.03F FOG
MENOMONIE      PTCLDY    60  58  94 CALM      30.04F
NEW RICHMOND   CLOUDY    60  59  96 E5        30.04S
OSCEOLA        CLOUDY    62  62 100 CALM      30.06S
$$

WIZ003>005-009-010-017-018-301200-
NORTH CENTRAL WISCONSIN

CITY           SKY/WX    TMP DP  RH WIND       PRES   REMARKS
MANITOWISH WTR PTCLDY    52  52 100 CALM      30.10R
ARBOR VITAE    MOCLDY    57  55  95 CALM      30.10R
WOODRUFF       MOCLDY    57  55  95 CALM      30.10R
RHINELANDER    CLEAR     53  50  89 CALM      30.10S
EAGLE RIVER      N/A     51  51 100 CALM      30.10R FOG
LAND O LAKES   CLEAR     49  49  99 CALM      30.11R
PHILLIPS       CLEAR     54  54 100 CALM      30.09R
TOMAHAWK       FOG       47  46  97 CALM      30.09S VSB 1/4
MEDFORD        CLOUDY    56  56 100 CALM      30.08R
MERRILL        PTCLDY    50  50 100 CALM      30.09R
$$

WIZ029-030-035-036-043>047-301200-
CENTRAL WISCONSIN

CITY           SKY/WX    TMP DP  RH WIND       PRES   REMARKS
WAUSAU         MOCLDY    59  53  80 VRB3      30.05S
MOSINEE        MOCLDY    59  55  88 NE6       30.07R
MARSHFIELD     CLOUDY    61  55  81 NE6       30.05S
STEVENS POINT  CLOUDY    58  56  91 NE6       30.05S
WAUPACA        CLOUDY    64  61  88 CALM      30.04S
WAUTOMA        CLOUDY    63  59  87 N5        30.03
WISC RAPIDS    CLOUDY    63  55  75 NE6       30.05S
CAMP DOUGLAS   NOT AVBL
$$

WIZ011>013-019>022-031-037>040-048>050-301200-
NORTHEAST WISCONSIN

CITY           SKY/WX    TMP DP  RH WIND       PRES   REMARKS
ANTIGO         CLEAR     51  50  97 CALM      30.08S
SHAWANO        CLOUDY    62  57  83 NE8       30.06R
OCONTO         CLEAR    N/A N/A N/A N5        30.04S
STURGEON BAY   CLEAR     64  58  80 E5        30.06R
GREEN BAY      CLEAR     59  59 100 N8        30.03S
MANITOWOC      NOT AVBL
APPLETON       NOT AVBL
CLINTONVILLE   CLOUDY    61  55  82 NE5       30.04S
OSHKOSH        CLOUDY    67  61  81 NE5       30.01S
$$

WIZ032>034-041-042-053>061-301200-
SOUTHWEST WISCONSIN

CITY           SKY/WX    TMP DP  RH WIND       PRES   REMARKS
LA CROSSE      CLOUDY    67  64  90 NE6       30.02R
SPARTA         CLOUDY    62  61  97 NE3       30.04R
VIROQUA        CLOUDY    64  63  97 NE3       30.03S
BOSCOBEL       CLOUDY    62  62 100 CALM      30.01R FOG
PRAIRIE DU CHI CLOUDY    65  63  92 CALM      30.00S
PLATTEVILLE    CLOUDY    65  65 100 N3        30.00R
$$

WIZ056-057-062-063-064-067-068-301200-
SOUTH CENTRAL WISCONSIN

CITY           SKY/WX    TMP DP  RH WIND       PRES   REMARKS
REEDSBURG      CLOUDY    62  61  95 CALM      30.01S
BARABOO/DELLS  CLOUDY    62  59  90 CALM      30.02S
LONE ROCK      CLOUDY    64  61  88 CALM      30.01S
MINERAL POINT  CLOUDY    64  63  94 NE6       30.01R
MADISON        MOCLDY    63  59  87 N5        30.00R
MIDDLETON      CLOUDY    64  60  86 CALM      30.01R
WATERTOWN      CLOUDY    64  64 100 N3        30.00R
MONROE         PTCLDY    63  61  94 N8        29.99R
JANESVILLE     PTCLDY    64  63  94 CALM      29.97S
$$

WIZ051-052-058>065-066-070>072-301200-
SOUTHEAST WISCONSIN

CITY           SKY/WX    TMP DP  RH WIND       PRES   REMARKS
MILWAUKEE      CLOUDY    68  64  87 NE7       29.99R
WAUKESHA       MOCLDY    63  57  82 NE6       30.00S
MILWAUKEE/TIMM PTCLDY    63  55  77 NE3       30.00R
RACINE         CLOUDY    69  63  81 E8        29.99R
BURLINGTON     CLOUDY    64  63  96 NE6       29.97S
KENOSHA        MOCLDY    67  63  87 E10       29.98R
FOND DU LAC    CLOUDY    67  62  84 NE5       30.01S
SHEBOYGAN      CLEAR     61  58  90 CALM      30.02R
WEST BEND      MOCLDY    61  57  88 CALM      30.01R
JUNEAU         CLOUDY    63  60  90 N7        30.02S
$$

LSZ147-162-301200-
LAKE SUPERIOR

STATION/POSITION TIME  TEMP    WIND        PRES    WAVE
                       AIR SEA DIR/SP/G            HT/PER
                 (UTC) (F)     (DEG/KT/KT) (MB)    (FT/S)
W MID LAKE BUOY  0950   62 62   70/  4/  6 1017.3R   0
DEVILS ISLAND    1000   64      70/  9/ 10 1017.4S
PORT WING        1000   54     160/  3/  4 1017.6S
SAXON HARBOR     1000   56     210/  4/  4 1017.3S
$$

LMZ867-665-643>646-301200-
LAKE MICHIGAN

STATION/POSITION TIME  TEMP    WIND        PRES    WAVE
                       AIR SEA DIR/SP/G            HT/PER
                 (UTC) (F)     (DEG/KT/KT) (MB)    (FT/S)
CHAMBERS ISLAND  1000   69      80/  5/  8 1017.6R
S GREEN BAY BUOY 1030   68 70   50/ 10/ 12 1016.7R
N MID LAKE BUOY  0950   69 69   80/  8/ 10 1017.2R   1/ 3
NORTHPORT PIER   1000   69      90/  9/ 10 1017.6R
SISTER BAY       1021   63        CALM       N/A
ALGOMA LAKESHORE 1043           80/  9/ 10   N/A
KEWAUNEE LAKESHO 1000   66      80/  3/  5 1016.2S
SHEBOYGAN LAKESH 1000   69     100/  7/  8 1016.1R
PORT WASHINGTON  1040   67      40/  5/  7 1016.6R
ATWATER BUOY     1000   64 60  320/  2/  6 1016.8R
MILWAUKEE LAKESH 1010   66      20/  3/  3   N/A
S MID LAKE BUOY  0950   67 73   80/ 21/ 25 1013.3F   4/ 5
KENOSHA   LAKESH 1000   70      70/ 12/ 14 1014.2S
$$

TC  - TEMPERATURE IN CELSIUS
VSB - VISIBILITY IN STATUTE MILES
WCI - WIND CHILL INDEX
HX  - HEAT INDEX





USA.gov is the U.S. government's official web portal to all federal, state and local government web resources and services.